sat.trackr.live / text

‹ back to catalog

STARLINK-3645

NORAD 51986 · 2022-025AG

PAYLOAD ACTIVE UNKNOWN

§ Identity

Operator
Country
US
Launch date
2022-03-09
Launch site
AFETR
Launch vehicle
Mass (kg)
RCS (m²)

Purposes: comms

External: N2YO · Heavens-Above · Gunter

§ Orbital elements

Epoch: 2026-05-25T03:01:49.589760Z

Period
95.44 min
Inclination
53.2132°
Eccentricity
0.0001460
Mean motion
15.08844354 rev/d
Perigee alt
538.7 km
Apogee alt
540.7 km
Semi-major
6,917.9 km
B*
-3.2975e-5
RAAN
55.8293°
Arg perigee
91.9626°
Mean anomaly
268.1533°
Rev number
23,260

§ Raw data

STARLINK-36451 51986U 22025AG  26145.12626840 -.00000813  00000+0 -32975-4 0  99902 51986  53.2132  55.8293 0001460  91.9626 268.1533 15.08844354232606

JSON: /api/v1/satellites/51986 · /tle

For live sub-satellite position, see the globe view (requires WebGL).

§ Visibility from observer

Set your observer location to see the next 7 days of passes ≥ 10°. The values pass through the URL so the page stays shareable.

No JS? Fill the form by hand. The geolocation button needs JavaScript.